• In Latvia
  • List of Countries
  • For 7 days
  • Water Temperature
  • Satellite Maps
  • Weather Map
  • Weather Widgets
  • user-avatar
    Login

    Hourly Weather Ordino

    Today, 26 February, Sunday

    Time Temperature Precipitation Wind Pressure Humidity
    00:00 -1°C° 0 mm 1 mps 632 mmHg 83%
    01:00 -1°C° 0 mm 1 mps 632 mmHg 80%
    02:00 -1°C° 0 mm 1 mps 632 mmHg 77%
    03:00 -1°C° 0 mm 1 mps 632 mmHg 74%
    04:00 -1°C° 0 mm 1 mps 632 mmHg 72%
    05:00 -1°C° 0 mm 1 mps 632 mmHg 71%
    06:00 -1°C° 0 mm 1 mps 632 mmHg 69%
    07:00 +1°C° 0 mm 1 mps 633 mmHg 63%
    08:00 +4°C° 0 mm 1 mps 634 mmHg 56%
    09:00 +6°C° 0 mm 0 mps 635 mmHg 49%
    10:00 +8°C° 0 mm 1 mps 635 mmHg 49%
    11:00 +9°C° 0 mm 1 mps 636 mmHg 48%
    12:00 +9°C° 0 mm 2 mps 636 mmHg 48%
    13:00 +9°C° 0 mm 2 mps 635 mmHg 50%
    14:00 +9°C° 0 mm 2 mps 635 mmHg 52%
    15:00 +9°C° 0 mm 2 mps 634 mmHg 55%
    16:00 +7°C° 0 mm 1 mps 633 mmHg 66%
    17:00 +4°C° 0 mm 1 mps 632 mmHg 78%
    18:00 +1°C° 0 mm 1 mps 631 mmHg 90%
    19:00 +1°C° 0 mm 1 mps 631 mmHg 90%
    20:00 0°C° 0 mm 1 mps 630 mmHg 90%
    21:00 -1°C° 0 mm 0 mps 630 mmHg 90%
    22:00 0°C° 0 mm 1 mps 630 mmHg 89%
    23:00 0°C° 0 mm 1 mps 630 mmHg 88%

    Tomorrow, 27 February, Monday

    Time Temperature Precipitation Wind Pressure Humidity
    00:00 0°C° 0 mm 1 mps 630 mmHg 87%
    01:00 0°C° 0 mm 1 mps 629 mmHg 85%
    02:00 0°C° 0 mm 1 mps 629 mmHg 82%
    03:00 0°C° 0 mm 1 mps 628 mmHg 79%
    04:00 0°C° 0 mm 1 mps 628 mmHg 79%
    05:00 0°C° 0 mm 1 mps 628 mmHg 79%
    06:00 0°C° 0 mm 1 mps 628 mmHg 80%
    07:00 +2°C° 0 mm 1 mps 629 mmHg 72%
    08:00 +4°C° 0 mm 1 mps 629 mmHg 65%
    09:00 +7°C° 0 mm 1 mps 630 mmHg 58%
    10:00 +7°C° 0 mm 2 mps 631 mmHg 54%
    11:00 +8°C° 0 mm 2 mps 631 mmHg 50%
    12:00 +10°C° 0 mm 2 mps 631 mmHg 45%
    13:00 +10°C° 0 mm 2 mps 631 mmHg 46%
    14:00 +9°C° 0 mm 2 mps 630 mmHg 47%
    15:00 +9°C° 0 mm 2 mps 630 mmHg 48%
    16:00 +7°C° 0 mm 2 mps 629 mmHg 60%
    17:00 +5°C° 0 mm 1 mps 628 mmHg 72%
    18:00 +2°C° 0 mm 1 mps 628 mmHg 85%
    19:00 +2°C° 0 mm 1 mps 628 mmHg 87%
    20:00 +2°C° 0 mm 1 mps 628 mmHg 90%
    21:00 +1°C° 0 mm 1 mps 628 mmHg 93%
    22:00 +1°C° 0 mm 1 mps 628 mmHg 93%
    23:00 +1°C° 0 mm 1 mps 628 mmHg 93%

    Day after tomorrow, 28 February, Tuesday

    Time Temperature Precipitation Wind Pressure Humidity
    00:00 +1°C° 0 mm 1 mps 628 mmHg 93%
    01:00 +1°C° 0 mm 1 mps 627 mmHg 92%
    02:00 0°C° 0 mm 1 mps 627 mmHg 92%
    03:00 0°C° 0 mm 1 mps 627 mmHg 92%
    04:00 0°C° 0 mm 1 mps 627 mmHg 90%
    05:00 0°C° 0 mm 1 mps 627 mmHg 89%
    06:00 -1°C° 0 mm 1 mps 626 mmHg 88%
    07:00 +1°C° 0 mm 1 mps 627 mmHg 79%
    08:00 +3°C° 0 mm 1 mps 628 mmHg 70%
    09:00 +5°C° 0 mm 1 mps 629 mmHg 61%
    10:00 +5°C° 0 mm 2 mps 629 mmHg 58%
    11:00 +7°C° 0 mm 3 mps 630 mmHg 55%
    12:00 +7°C° 0 mm 4 mps 630 mmHg 52%
    13:00 +6°C° 0.1 mm 4 mps 630 mmHg 55%
    14:00 +6°C° 0.1 mm 4 mps 630 mmHg 58%
    15:00 +6°C° 0.1 mm 4 mps 630 mmHg 60%
    16:00 +4°C° 0.1 mm 4 mps 630 mmHg 69%
    17:00 +3°C° 0.1 mm 3 mps 629 mmHg 78%
    18:00 +2°C° 0.1 mm 2 mps 629 mmHg 87%
    19:00 +1°C° 0 mm 2 mps 630 mmHg 88%
    20:00 +1°C° 0 mm 2 mps 630 mmHg 90%
    21:00 -1°C° 0 mm 2 mps 630 mmHg 92%
    22:00 -1°C° 0 mm 2 mps 630 mmHg 91%
    23:00 +1°C° 0 mm 1 mps 630 mmHg 89%

    1 March, Wednesday

    Time Temperature Precipitation Wind Pressure Humidity
    00:00 +1°C° 0 mm 1 mps 631 mmHg 88%
    01:00 +1°C° 0 mm 1 mps 631 mmHg 88%
    02:00 +1°C° 0 mm 1 mps 631 mmHg 87%
    03:00 +1°C° 0 mm 1 mps 631 mmHg 86%
    04:00 +1°C° 0 mm 1 mps 631 mmHg 87%
    05:00 +1°C° 0 mm 1 mps 631 mmHg 88%
    06:00 +1°C° 0 mm 1 mps 631 mmHg 88%
    07:00 +3°C° 0 mm 1 mps 632 mmHg 82%
    08:00 +5°C° 0 mm 1 mps 633 mmHg 75%
    09:00 +7°C° 0 mm 1 mps 635 mmHg 68%
    10:00 +8°C° 0 mm 1 mps 635 mmHg 65%
    11:00 +8°C° 0 mm 2 mps 635 mmHg 61%
    12:00 +9°C° 0 mm 2 mps 635 mmHg 58%
    13:00 +9°C° 0 mm 2 mps 635 mmHg 60%
    14:00 +8°C° 0 mm 2 mps 635 mmHg 62%
    15:00 +8°C° 0 mm 2 mps 634 mmHg 64%
    16:00 +7°C° 0.1 mm 1 mps 634 mmHg 73%
    17:00 +6°C° 0.1 mm 1 mps 634 mmHg 82%
    18:00 +4°C° 0.1 mm 1 mps 633 mmHg 91%
    19:00 +4°C° 0 mm 1 mps 633 mmHg 92%
    20:00 +3°C° 0 mm 1 mps 634 mmHg 93%
    21:00 +3°C° 0 mm 1 mps 634 mmHg 94%
    22:00 +3°C° 0 mm 1 mps 634 mmHg 94%
    23:00 +2°C° 0 mm 1 mps 634 mmHg 93%

    2 March, Thursday

    Time Temperature Precipitation Wind Pressure Humidity
    00:00 +2°C° 0 mm 1 mps 634 mmHg 93%
    01:00 +1°C° 0 mm 1 mps 633 mmHg 93%
    02:00 +1°C° 0 mm 1 mps 633 mmHg 92%
    03:00 +1°C° 0 mm 1 mps 633 mmHg 92%
    04:00 0°C° 0 mm 1 mps 633 mmHg 92%
    05:00 0°C° 0 mm 1 mps 633 mmHg 92%
    06:00 0°C° 0 mm 1 mps 633 mmHg 92%
    07:00 +2°C° 0 mm 1 mps 634 mmHg 85%
    08:00 +5°C° 0 mm 1 mps 635 mmHg 78%
    09:00 +8°C° 0 mm 1 mps 636 mmHg 72%
    10:00 +8°C° 0 mm 2 mps 636 mmHg 67%
    11:00 +9°C° 0 mm 2 mps 636 mmHg 62%
    12:00 +10°C° 0 mm 3 mps 636 mmHg 58%
    13:00 +10°C° 0 mm 3 mps 636 mmHg 57%
    14:00 +10°C° 0 mm 3 mps 635 mmHg 57%
    15:00 +10°C° 0 mm 3 mps 635 mmHg 57%
    16:00 +8°C° 0 mm 2 mps 634 mmHg 66%
    17:00 +6°C° 0 mm 2 mps 633 mmHg 76%
    18:00 +3°C° 0 mm 2 mps 632 mmHg 85%
    19:00 +3°C° 0 mm 2 mps 631 mmHg 87%
    20:00 +2°C° 0 mm 2 mps 631 mmHg 88%
    21:00 +1°C° 0 mm 2 mps 631 mmHg 89%
    22:00 +1°C° 0 mm 2 mps 630 mmHg 89%
    23:00 +2°C° 0 mm 2 mps 630 mmHg 89%

    3 March, Friday

    Time Temperature Precipitation Wind Pressure Humidity
    00:00 +2°C° 0 mm 2 mps 630 mmHg 89%
    01:00 +1°C° 0 mm 2 mps 629 mmHg 89%
    02:00 +1°C° 0 mm 2 mps 629 mmHg 89%
    03:00 +1°C° 0 mm 2 mps 628 mmHg 88%
    04:00 +1°C° 0 mm 2 mps 628 mmHg 88%
    05:00 +1°C° 0 mm 2 mps 628 mmHg 88%
    06:00 +1°C° 0 mm 2 mps 627 mmHg 89%
    07:00 +3°C° 0 mm 2 mps 628 mmHg 82%
    08:00 +5°C° 0 mm 2 mps 629 mmHg 76%
    09:00 +6°C° 0 mm 2 mps 629 mmHg 69%
    10:00 +7°C° 0 mm 2 mps 629 mmHg 65%
    11:00 +8°C° 0 mm 2 mps 629 mmHg 60%
    12:00 +9°C° 0 mm 3 mps 629 mmHg 56%
    13:00 +9°C° 0 mm 3 mps 629 mmHg 56%
    14:00 +9°C° 0 mm 3 mps 628 mmHg 55%
    15:00 +9°C° 0 mm 3 mps 628 mmHg 55%
    16:00 +7°C° 0.2 mm 3 mps 627 mmHg 66%
    17:00 +4°C° 0.2 mm 2 mps 627 mmHg 77%
    18:00 +2°C° 0.2 mm 2 mps 626 mmHg 88%
    19:00 +2°C° 0.2 mm 1 mps 626 mmHg 89%
    20:00 +2°C° 0.2 mm 1 mps 626 mmHg 90%
    21:00 +1°C° 0.2 mm 1 mps 625 mmHg 91%
    22:00 +1°C° 0.1 mm 1 mps 625 mmHg 88%
    23:00 +1°C° 0.1 mm 1 mps 625 mmHg 84%
    Show more